sat.trackr.live / text

‹ back to catalog

2023-085AL

NORAD 57038 · 2023-085AL

PAYLOAD ACTIVE UNKNOWN

§ Identity

Operator
Country
PRC
Launch date
2023-06-15
Launch site
TAISC
Launch vehicle
Mass (kg)
RCS (m²)

External: N2YO · Heavens-Above · Gunter

§ Orbital elements

Epoch: 2026-05-25T04:02:16.081152Z

Period
93.86 min
Inclination
97.4921°
Eccentricity
0.0007775
Mean motion
15.34153798 rev/d
Perigee alt
458.1 km
Apogee alt
468.8 km
Semi-major
6,841.6 km
B*
4.5166e-4
RAAN
257.2108°
Arg perigee
153.0229°
Mean anomaly
207.1419°
Rev number
16,322

§ Raw data

2023-085AL1 57038U 23085AL  26145.16824168  .00014874  00000+0  45166-3 0  99932 57038  97.4921 257.2108 0007775 153.0229 207.1419 15.34153798163224

JSON: /api/v1/satellites/57038 · /tle

For live sub-satellite position, see the globe view (requires WebGL).

§ Visibility from observer

Set your observer location to see the next 7 days of passes ≥ 10°. The values pass through the URL so the page stays shareable.

No JS? Fill the form by hand. The geolocation button needs JavaScript.